Terminal Aerodrome Forecast
Issued by NWS

Home | Current Version | Previous Version | Text Only | Print | Product List | Glossary On
Versions: 1 2 3 4 5 6 7 8 9 10 11 12 13 14 15 16 17 18 19 20 21 22 23 24 25 26 27 28 29 30 31
000
FTUS41 KOKX 271420 AAB
TAFGON
TAF AMD
KGON 271420Z 2714/2812 18007KT P6SM BKN015 BKN040
     FM271600 18010KT P6SM SCT020 BKN040
     FM272000 21008KT 6SM HZ SCT040 BKN120
     FM280100 21006KT 3SM BR BKN010
     FM280600 20005KT 1SM BR BKN005=

USA.gov is the U.S. government's official web portal to all federal, state and local government web resources and services.